Stations météo

Publicité
Berus, Allemagne (10704): Température de l'air & dewpoint: 04.12.2019 20:00:00 - 10.12.2019 20:00:00 (CET)Berus, Allemagne (10704): Température de l'air 5cm & Température de l'air -5cm: 04.12.2019 20:00:00 - 10.12.2019 20:00:00 (CET)Berus, Allemagne (10704): Température de l'air -20cm & Température de l'air -100cm: 04.12.2019 20:00:00 - 10.12.2019 20:00:00 (CET)Berus, Allemagne (10704): Vitesse du vent & gusts: 04.12.2019 20:00:00 - 10.12.2019 20:00:00 (CET)Berus, Allemagne (10704): Direction du vent: 04.12.2019 20:00:00 - 10.12.2019 20:00:00 (CET)Berus, Allemagne (10704): reduced air pressure: 04.12.2019 20:00:00 - 10.12.2019 20:00:00 (CET)Berus, Allemagne (10704): visibility: 04.12.2019 20:00:00 - 10.12.2019 20:00:00 (CET)Berus, Allemagne (10704): Ensoleillement: 04.12.2019 20:00:00 - 10.12.2019 20:00:00 (CET)Berus, Allemagne (10704): Quantités de précipitations: 04.12.2019 20:00:00 - 10.12.2019 20:00:00 (CET)
Date & Time tt [°C] td [°C] tt 5cm [°C] tt -5cm [°C] tt -20cm [°C] tt -100cm [°C] ff [km/h] ff [knt] fx [km/h] fx [knt] dd ppp [hPa] vv [km] sd [min] rr [mm]
10.12.2019 20:00:00 1,2 0,3 0,5 1,4 3,5 7,5 16 9 22 12 SSW 1024,0 15 0 0,0
10.12.2019 19:00:00 1,2 0,4 0,5 1,4 3,6 7,5 16 9 21 11 S 1024,7 11 0 0,0
10.12.2019 18:00:00 1,1 0,4 0,1 1,6 3,6 7,5 11 6 16 9 S 1025,6 7 0 0,0
10.12.2019 17:00:00 0,6 0,0 -0,6 2,2 3,6 7,5 8 5 15 8 SSW 1026,2 7 0 0,0
10.12.2019 16:00:00 1,3 0,3 1,4 3,0 3,6 7,5 12 6 21 11 S 1026,9 12 0 0,0
10.12.2019 15:00:00 1,2 0,5 1,8 3,1 3,5 7,5 13 7 22 12 SW 1027,9 10 0 0,0
10.12.2019 14:00:00 0,9 0,7 1,5 2,8 3,4 7,5 15 8 25 14 SSW 1028,5 4,0 0 0,0
10.12.2019 13:00:00 0,7 0,5 1,4 2,6 3,4 7,5 19 10 25 13 SSW 1029,5 0,3 0 0,0
10.12.2019 12:00:00 1,0 0,9 1,6 2,3 3,4 7,5 13 7 20 11 SSW 1030,0 0,2 0 0,0
10.12.2019 11:00:00 0,7 0,6 1,3 1,2 3,4 7,5 6 4 15 8 SW 1030,3 0,1 0 0,0
10.12.2019 10:00:00 0,3 0,1 0,3 1,0 3,5 7,5 10 5 17 9 WSW 1029,8 0,1 0 0,0
10.12.2019 09:00:00 0,2 -0,1 -0,3 1,0 3,6 7,5 9 5 17 9 NNW 1029,4 0,4 0 0,0
10.12.2019 08:00:00 0,5 -0,1 -0,6 1,0 3,7 7,5 14 7 21 11 W 1028,9 11 0 0,0
10.12.2019 07:00:00 0,6 -0,1 -0,8 1,0 3,9 7,5 15 8 19 11 W 1028,3 16 0 0,0
10.12.2019 06:00:00 0,9 0,1 -0,1 1,0 4,0 7,5 14 8 22 12 W 1028,1 16 0 0,0
10.12.2019 05:00:00 0,9 0,2 -0,4 1,1 4,2 7,5 12 6 22 12 W 1027,5 15 0 0,0
10.12.2019 04:00:00 1,7 0,7 0,9 1,5 4,4 7,5 14 8 24 13 WSW 1026,4 18 0 0,0
10.12.2019 03:00:00 1,5 0,2 -0,1 1,3 4,6 7,5 14 8 22 12 WNW 1025,5 23 0 0,0
10.12.2019 02:00:00 1,7 0,0 -0,1 1,6 4,8 7,5 11 6 21 11 WNW 1024,2 23 0 0,0
10.12.2019 01:00:00 2,4 0,2 0,6 2,1 5,0 7,4 12 6 35 19 WNW 1023,2 22 0 0,0
10.12.2019 00:00:00 2,7 0,5 1,0 2,6 5,1 7,4 13 7 31 17 NW 1022,0 25 0 0,0
09.12.2019 23:00:00 3,0 0,5 1,2 3,3 5,3 7,4 21 11 36 19 NNW 1020,2 26 0 0,1
09.12.2019 22:00:00 3,7 2,4 3,2 3,9 5,4 7,4 22 12 48 26 N 1018,4 13 0 0,0
09.12.2019 21:00:00 4,0 2,0 2,9 4,3 5,4 7,4 26 14 46 25 NNW 1015,9 69 0 0,1
09.12.2019 20:00:00 4,1 3,1 3,8 4,7 5,5 7,4 21 11 50 27 NW 1013,2 42 0 0,7
09.12.2019 19:00:00 4,6 2,7 4,0 4,8 5,5 7,4 26 14 50 27 W 1010,6 23 0 0,0
09.12.2019 18:00:00 4,9 3,2 4,3 5,1 5,6 7,4 27 15 46 25 W 1008,9 51 0 0,1
09.12.2019 17:00:00 5,2 3,6 4,6 5,3 5,6 7,4 16 9 27 14 WSW 1007,7 53 0 0,0
09.12.2019 16:00:00 5,2 3,8 4,8 5,6 5,5 7,4 15 8 31 17 W 1006,5 75 12 0,0
09.12.2019 15:00:00 5,0 4,2 5,1 5,8 5,5 7,4 19 10 40 22 W 1005,2 59 0 0,3
09.12.2019 14:00:00 5,1 4,5 5,2 5,8 5,4 7,4 23 13 35 19 WSW 1003,9 11 0 0,6
09.12.2019 13:00:00 5,0 4,3 5,2 5,8 5,4 7,4 22 12 56 30 WSW 1003,3 16 0 0,4
09.12.2019 12:00:00 5,2 4,4 5,1 5,3 5,4 7,4 29 15 49 27 SW 1003,1 42 0 0,3
09.12.2019 11:00:00 5,3 4,1 4,9 5,1 5,4 7,4 40 21 62 33 SW 1002,6 55 0 0,1
09.12.2019 10:00:00 5,1 4,2 4,9 5,1 5,4 7,4 37 20 56 31 SW 1001,9 21 0 0,7
09.12.2019 09:00:00 4,9 4,0 4,6 4,9 5,5 7,4 37 20 63 34 SW 1002,3 16 0 0,4
09.12.2019 08:00:00 5,1 3,7 4,6 4,9 5,5 7,4 37 20 55 30 SW 1002,3 36 0 0,4
09.12.2019 07:00:00 5,1 3,9 4,7 4,9 5,5 7,4 34 18 55 30 SW 1002,5 8 0 0,2
09.12.2019 06:00:00 5,2 3,7 4,6 4,8 5,6 7,4 36 20 62 33 SW 1003,0 11 0 0,1
09.12.2019 05:00:00 5,6 3,5 4,8 4,9 5,7 7,4 36 19 57 31 SW 1003,5 22 0 0,0
09.12.2019 04:00:00 5,5 3,4 4,7 4,9 5,8 7,4 39 21 62 34 SW 1004,1 52 0 0,0
09.12.2019 03:00:00 5,5 3,5 4,5 5,1 5,8 7,4 39 21 58 31 SW 1004,6 51 0 0,0
09.12.2019 02:00:00 5,9 5,0 5,5 5,6 5,9 7,4 39 21 61 33 SW 1004,8 33 0 0,7
09.12.2019 01:00:00 5,6 4,5 5,2 5,5 6,0 7,4 31 17 58 31 WSW 1005,6 8 0 0,4
09.12.2019 00:00:00 6,1 4,5 5,4 5,4 6,0 7,4 38 21 64 35 SW 1005,8 23 0 0,0
08.12.2019 23:00:00 6,2 4,5 5,3 5,5 6,1 7,4 37 20 60 32 SW 1005,6 25 0 0,0
08.12.2019 22:00:00 6,5 5,1 5,7 6,0 6,2 7,4 38 21 53 29 WSW 1006,1 29 0 0,0
08.12.2019 21:00:00 6,5 5,5 6,0 6,4 6,2 7,4 31 17 49 26 WSW 1006,2 32 0 0,0
08.12.2019 20:00:00 6,5 5,9 6,3 6,8 6,2 7,4 30 16 45 24 SW 1006,3 20 0 0,3
08.12.2019 19:00:00 6,9 6,3 6,7 7,3 6,1 7,4 28 15 54 29 WSW 1006,2 25 0 3,2
08.12.2019 18:00:00 8,8 8,6 8,7 7,6 6,0 7,4 40 21 61 33 SW 1005,2 1,8 0 1,4
08.12.2019 17:00:00 8,8 8,5 8,6 7,5 5,9 7,4 38 20 61 33 SW 1005,8 2,5 0 0,9
08.12.2019 16:00:00 8,7 8,4 8,6 7,5 5,8 7,4 39 21 66 35 SW 1006,3 3,8 0 0,9
08.12.2019 15:00:00 8,7 8,4 8,6 7,4 5,7 7,4 40 22 60 33 SW 1006,6 3,6 0 0,7
08.12.2019 14:00:00 8,7 8,1 8,4 7,2 5,6 7,4 37 20 59 32 SSW 1007,8 20 0 0,4
08.12.2019 13:00:00 8,6 7,8 8,3 7,1 5,5 7,4 36 20 59 32 SSW 1008,9 46 0 0,6
08.12.2019 12:00:00 8,7 7,5 8,2 6,8 5,4 7,4 41 22 58 31 SW 1010,0 7 0 0,0
08.12.2019 11:00:00 8,5 6,9 8,2 6,4 5,3 7,4 32 18 53 29 SW 1011,0 68 0 0,0
08.12.2019 10:00:00 8,1 6,3 7,7 6,1 5,2 7,4 29 16 61 33 SW 1011,7 41 0 0,0
08.12.2019 09:00:00 7,2 6,2 6,9 5,9 5,2 7,4 31 17 53 29 SSW 1012,1 42 0 0,0
08.12.2019 08:00:00 7,4 5,7 7,1 5,7 5,2 7,4 36 20 63 34 SW 1012,2 74 0 0,0
08.12.2019 07:00:00 7,3 4,9 6,9 5,6 5,1 7,4 30 16 44 24 SSW 1012,9 75 0 0,0
08.12.2019 06:00:00 7,2 5,2 6,8 5,5 5,1 7,4 32 17 44 24 SSW 1013,4 73 0 0,0
08.12.2019 05:00:00 6,7 5,2 6,5 5,5 5,1 7,4 26 14 44 24 SSW 1014,5 69 0 0,0
08.12.2019 04:00:00 6,6 5,1 6,3 5,5 5,1 7,4 31 17 48 26 SW 1015,5 58 0 0,0
08.12.2019 03:00:00 6,8 5,0 6,3 5,4 5,1 7,4 22 12 35 19 SSW 1015,8 68 0 0,0
08.12.2019 02:00:00 6,8 5,0 6,4 5,5 5,1 7,4 24 13 36 19 SW 1017,1 58 0 0,0
08.12.2019 01:00:00 6,8 5,3 6,4 5,5 5,0 7,4 24 13 35 19 SW 1018,0 54 0 0,0
08.12.2019 00:00:00 6,7 5,6 6,4 5,5 5,0 7,4 21 12 32 18 SW 1018,6 41 0 0,0
07.12.2019 23:00:00 6,6 6,0 6,4 5,6 5,0 7,4 23 12 32 17 SW 1018,7 20 0 0,0
07.12.2019 22:00:00 6,7 6,0 6,4 5,5 5,0 7,4 18 10 31 17 SW 1019,2 26 0 0,0
07.12.2019 21:00:00 6,6 5,7 6,2 5,5 5,0 7,5 19 11 35 19 SW 1019,3 34 0 0,0
07.12.2019 20:00:00 6,7 5,5 6,2 5,5 5,0 7,5 23 12 35 19 SW 1019,2 42 0 0,0
07.12.2019 19:00:00 6,8 5,7 6,3 5,6 5,0 7,5 21 11 29 16 SW 1019,0 37 0 0,0
07.12.2019 18:00:00 7,0 5,8 6,3 5,7 5,0 7,5 17 9 31 17 SW 1019,0 33 0 0,0
07.12.2019 17:00:00 7,2 5,5 6,4 6,2 4,9 7,5 19 10 30 16 SW 1018,4 38 0 0,0
07.12.2019 16:00:00 7,7 5,8 7,2 6,6 4,8 7,5 17 9 35 19 WSW 1018,2 41 8 0,0
07.12.2019 15:00:00 7,8 5,9 7,4 6,7 4,6 7,5 21 11 39 21 WSW 1017,6 36 2 0,0
07.12.2019 14:00:00 7,8 6,3 7,4 6,9 4,5 7,5 22 12 37 20 SW 1017,5 36 0 0,0
07.12.2019 13:00:00 7,7 6,3 7,7 6,7 4,3 7,5 20 11 35 19 SW 1017,7 36 0 0,0
07.12.2019 12:00:00 7,5 6,6 7,4 6,3 4,1 7,5 22 12 35 19 SW 1017,8 23 0 0,0
07.12.2019 11:00:00 7,2 6,7 7,1 5,8 4,0 7,6 22 12 35 19 WSW 1017,9 15 0 0,1
07.12.2019 10:00:00 7,1 6,8 7,1 5,5 3,9 7,6 21 11 34 19 SW 1017,1 9 0 0,0
07.12.2019 09:00:00 6,9 6,6 6,7 5,2 3,7 7,6 21 11 34 18 SW 1016,8 8 0 0,0
07.12.2019 08:00:00 6,9 6,6 6,6 5,1 3,6 7,6 21 11 37 20 SW 1016,3 9 0 0,0
07.12.2019 07:00:00 7,0 6,7 6,7 5,0 3,4 7,6 25 14 38 21 SW 1015,3 8 0 0,0
07.12.2019 06:00:00 7,0 6,6 6,6 4,9 3,3 7,6 23 13 40 22 WSW 1014,8 14 0 1,0
07.12.2019 05:00:00 7,0 6,7 6,8 4,8 3,1 7,6 26 14 55 30 WSW 1014,2 2,3 0 0,6
07.12.2019 04:00:00 7,0 6,5 6,7 4,6 2,9 7,6 30 16 47 26 SW 1013,4 12 0 0,3
07.12.2019 03:00:00 6,9 6,5 6,6 4,3 2,7 7,6 32 17 51 28 SW 1013,2 14 0 0,3
07.12.2019 02:00:00 6,6 6,2 6,4 3,9 2,5 7,6 36 19 56 31 SW 1012,6 16 0 0,1
07.12.2019 01:00:00 6,0 5,7 5,8 3,4 2,3 7,7 39 21 58 32 SW 1012,6 14 0 0,4
07.12.2019 00:00:00 5,4 5,2 5,2 2,8 2,1 7,7 38 21 62 34 SW 1012,7 0,5 0 0,4
06.12.2019 23:00:00 4,3 4,1 4,1 2,3 2,0 7,7 35 19 49 26 SW 1013,2 2,2 0 1,4
06.12.2019 22:00:00 3,7 3,2 3,4 1,7 1,9 7,7 31 17 45 24 SW 1013,6 3,1 0 0,2
06.12.2019 21:00:00 2,8 2,3 2,6 1,3 1,8 7,7 33 18 53 29 SSW 1014,2 5 0 0,1
06.12.2019 20:00:00 2,9 2,4 2,7 1,0 1,8 7,7 29 16 41 22 SSW 1014,7 7 0 0,9
06.12.2019 19:00:00 2,9 2,4 2,6 0,4 1,8 7,7 31 17 42 23 SW 1015,2 5 0 1,9
06.12.2019 18:00:00 2,5 2,2 2,3 0,3 1,8 7,7 22 12 37 20 SSW 1015,5 3,2 0 1,1
06.12.2019 17:00:00 2,4 2,0 2,1 0,3 1,9 7,7 22 12 35 19 SW 1015,9 4,0 0 0,4
06.12.2019 16:00:00 2,1 1,7 1,9 0,3 1,9 7,7 23 12 30 16 SSW 1016,5 6 0 0,0
06.12.2019 15:00:00 1,8 1,5 1,8 0,3 1,9 7,7 25 14 35 19 SSW 1016,8 3,9 0 0,0
06.12.2019 14:00:00 1,3 1,0 1,4 0,3 1,9 7,8 21 11 28 15 SSW 1017,7 0,2 0 0,0
06.12.2019 13:00:00 1,1 0,9 1,3 0,3 1,9 7,8 18 10 27 15 SSW 1018,6 0,1 0 0,0
06.12.2019 12:00:00 0,7 0,7 0,7 0,3 1,9 7,8 18 10 23 12 SSW 1019,6 0,1 0 0,0
06.12.2019 11:00:00 -0,1 -0,2 0,0 0,3 1,9 7,8 13 7 17 9 SSW 1020,7 0,1 0 0,0
06.12.2019 10:00:00 -0,4 -0,6 -0,2 0,3 1,9 7,8 12 6 19 11 SSW 1021,0 0,1 0 0,0
06.12.2019 09:00:00 -0,6 -0,8 -0,5 0,3 1,9 7,8 16 8 22 12 SSW 1021,2 0,1 0 0,0
06.12.2019 08:00:00 -0,9 -1,2 -0,7 0,3 1,9 7,8 15 8 19 10 SSW 1021,1 0,2 0 0,0
06.12.2019 07:00:00 -1,3 -1,6 -1,1 0,3 1,9 7,8 13 7 18 10 SSW 1021,3 0,2 0 0,0
06.12.2019 06:00:00 -1,7 -2,1 -1,3 0,3 1,9 7,8 11 6 24 13 SSW 1021,6 0,2 0 0,0
06.12.2019 05:00:00 -1,9 -2,2 -1,6 0,3 1,9 7,8 17 9 31 17 SW 1022,1 0,2 0 0,0
06.12.2019 04:00:00 -1,8 -2,2 -1,6 0,3 1,9 7,9 22 12 34 18 SW 1022,6 0,2 0 0,0
06.12.2019 03:00:00 -2,2 -2,6 -1,9 0,3 1,9 7,9 13 7 22 12 SW 1022,8 0,2 0 0,0
06.12.2019 02:00:00 -2,4 -2,8 -2,1 0,3 2,0 7,9 16 9 24 13 SW 1023,2 0,3 0 0,0
06.12.2019 01:00:00 -2,6 -3,1 -2,3 0,3 2,0 7,9 16 8 22 12 SW 1023,7 0,5 0 0,0
06.12.2019 00:00:00 -2,8 -3,2 -2,4 0,3 2,0 7,9 11 6 19 11 SW 1024,0 0,2 0 0,0
05.12.2019 23:00:00 -3,0 -3,4 -2,6 0,3 2,0 7,9 13 7 21 11 SW 1024,1 0,2 0 0,0
05.12.2019 22:00:00 -3,3 -3,8 -2,9 0,3 2,0 7,9 11 6 16 9 WSW 1024,4 0,2 0 0,0
05.12.2019 21:00:00 -3,3 -3,7 -3,0 0,3 2,0 7,9 9 5 12 7 WSW 1024,1 0,1 0 0,0
05.12.2019 20:00:00 -3,4 -3,8 -3,1 0,3 2,0 7,9 7 4 11 6 SW 1024,4 0,1 0 0,0
05.12.2019 19:00:00 -3,7 -4,3 -4,5 0,3 2,0 7,9 2 1 7 4 W 1024,8 1,7 0 0,0
05.12.2019 18:00:00 -3,1 -3,4 -4,5 0,3 2,0 7,9 6 3 8 5 SW 1024,4 3,7 0 0,0
05.12.2019 17:00:00 -1,7 -2,5 -3,7 0,3 2,0 7,9 6 3 11 6 WSW 1024,1 3,8 11 0,0
05.12.2019 16:00:00 0,1 -1,5 -1,1 0,2 2,1 8,0 7 4 10 6 SW 1023,6 6 60 0,0
05.12.2019 15:00:00 1,0 -1,4 1,6 0,2 2,1 8,0 5 3 11 6 WSW 1023,6 7 60 0,0
05.12.2019 14:00:00 -0,2 -2,1 1,1 0,2 2,1 8,0 8 4 11 6 SW 1024,0 6 29 0,0
05.12.2019 13:00:00 -1,5 -2,7 -0,5 0,2 2,1 8,0 4 2 10 5 SSW 1024,5 2,1 16 0,0
05.12.2019 12:00:00 -2,4 -3,7 1,5 0,2 2,1 8,0 4 2 8 4 N 1025,0 0,3 57 0,0
05.12.2019 11:00:00 -1,5 -3,1 -0,4 0,2 2,2 8,0 7 4 11 6 SSW 1024,7 3,9 60 0,0
05.12.2019 10:00:00 -1,6 -2,6 -0,9 0,1 2,2 8,0 5 3 10 5 SSW 1024,3 3,4 60 0,0
05.12.2019 09:00:00 -3,0 -3,7 -5,0 0,1 2,2 8,0 6 4 9 5 WSW 1024,0 3,6 8 0,0
05.12.2019 08:00:00 -3,1 -3,7 -4,8 0,2 2,3 8,0 6 4 9 5 W 1024,0 2,9 0 0,0
05.12.2019 07:00:00 -3,1 -3,7 -5,7 0,2 2,3 8,0 4 2 4 2 NE 1023,4 0,3 0 0,0
05.12.2019 06:00:00 -2,4 -3,0 -6,0 0,3 2,4 8,0 2 1 7 4 ESE 1022,9 3,7 0 0,0
05.12.2019 05:00:00 -2,5 -3,0 -4,9 0,4 2,4 8,1 5 3 6 3 E 1022,9 4,2 0 0,0
05.12.2019 04:00:00 -2,3 -2,8 -4,5 0,4 2,4 8,1 5 3 7 4 ENE 1022,6 3,5 0 0,0
05.12.2019 03:00:00 -1,6 -2,5 -3,4 0,5 2,5 8,1 7 4 9 5 SE 1022,8 6 0 0,0
05.12.2019 02:00:00 -1,0 -1,9 -3,9 0,6 2,5 8,1 4 2 12 7 E 1022,3 10 0 0,0
05.12.2019 01:00:00 -0,8 -1,9 -2,5 0,6 2,6 8,1 6 3 12 6 ESE 1022,1 10 0 0,0
05.12.2019 00:00:00 -0,7 -1,9 -3,1 0,7 2,6 8,1 6 3 11 6 NNE 1022,0 11 0 0,0
04.12.2019 23:00:00 -0,6 -2,0 -2,8 0,7 2,7 8,1 10 5 13 7 NNE 1021,6 12 0 0,0
04.12.2019 22:00:00 -0,6 -2,0 -3,1 0,8 2,8 8,1 10 6 13 7 NE 1021,9 12 0 0,0
04.12.2019 21:00:00 -0,1 -1,7 -2,3 0,8 2,8 8,1 10 5 15 8 NE 1021,7 15 0 0,0
04.12.2019 20:00:00 0,3 -1,7 -2,0 0,9 2,9 8,1 10 6 18 10 NE 1021,8 20 0 0,0

tt = Température de l'air
td = dewpoint
tt 5cm = Température de l'air 5cm
tt -5cm = Température de l'air -5cm
tt -20cm = Température de l'air -20cm
tt -100cm = Température de l'air -100cm
ff = Vitesse du vent
fx = gusts
dd = Direction du vent
ppp = reduced air pressure
vv = visibility
sd = Ensoleillement
rr = Quantités de précipitations

stations d'obs. à proximité